Time,TemperatureF,DewpointF,PressureIn,WindDirection,WindDirectionDegrees,WindSpeedMPH,WindSpeedGustMPH,Humidity,HourlyPrecipIn,Conditions,Clouds,dailyrainin,SoftwareType,DateUTC
2013-07-31 00:00:00,68.1,61.8,30.37,North,0,0.0,0.0,80,0.00,,,0.00,WUHU216HW,2013-07-31 04:00:00,
2013-07-31 00:05:00,68.0,61.7,30.37,North,0,0.0,0.0,80,0.00,,,0.00,WUHU216HW,2013-07-31 04:05:00,
2013-07-31 00:10:00,67.8,61.5,30.37,North,0,0.0,0.0,80,0.00,,,0.00,WUHU216HW,2013-07-31 04:10:00,
2013-07-31 00:15:00,67.8,61.8,30.37,North,0,0.0,0.0,81,0.00,,,0.00,WUHU216HW,2013-07-31 04:15:00,
2013-07-31 00:20:00,67.8,61.8,30.37,North,0,0.0,0.0,81,0.00,,,0.00,WUHU216HW,2013-07-31 04:20:00,
2013-07-31 00:25:00,67.8,61.8,30.37,North,0,0.0,0.0,81,0.00,,,0.00,WUHU216HW,2013-07-31 04:25:00,
2013-07-31 00:30:00,67.8,61.8,30.37,North,0,0.0,0.0,81,0.00,,,0.00,WUHU216HW,2013-07-31 04:30:00,
2013-07-31 00:35:00,67.8,61.8,30.36,North,0,0.0,0.0,81,0.00,,,0.00,WUHU216HW,2013-07-31 04:35:00,
2013-07-31 00:40:00,67.8,61.8,30.36,North,0,0.0,0.0,81,0.00,,,0.00,WUHU216HW,2013-07-31 04:40:00,
2013-07-31 00:45:00,67.8,61.8,30.36,North,0,0.0,0.0,81,0.00,,,0.00,WUHU216HW,2013-07-31 04:45:00,
2013-07-31 00:50:00,67.8,61.8,30.36,North,0,0.0,0.0,81,0.00,,,0.00,WUHU216HW,2013-07-31 04:50:00,
2013-07-31 00:55:00,67.8,62.1,30.35,North,0,0.0,0.0,82,0.00,,,0.00,WUHU216HW,2013-07-31 04:55:00,
2013-07-31 01:00:00,67.8,62.1,30.36,North,0,0.0,0.0,82,0.00,,,0.00,WUHU216HW,2013-07-31 05:00:00,
2013-07-31 01:05:00,67.8,62.1,30.35,North,0,0.0,0.0,82,0.00,,,0.00,WUHU216HW,2013-07-31 05:05:00,
2013-07-31 01:10:00,67.8,62.4,30.35,North,0,0.0,0.0,83,0.00,,,0.00,WUHU216HW,2013-07-31 05:10:00,
2013-07-31 01:15:00,67.6,62.3,30.35,North,0,0.0,0.0,83,0.00,,,0.00,WUHU216HW,2013-07-31 05:15:00,
2013-07-31 01:20:00,67.4,62.1,30.35,North,0,0.0,0.0,83,0.00,,,0.00,WUHU216HW,2013-07-31 05:20:00,
2013-07-31 01:25:00,67.2,61.9,30.35,North,0,0.0,0.0,83,0.00,,,0.00,WUHU216HW,2013-07-31 05:25:00,
2013-07-31 01:30:00,67.2,62.2,30.35,North,0,0.0,0.0,84,0.00,,,0.00,WUHU216HW,2013-07-31 05:30:00,
2013-07-31 01:35:00,67.2,62.2,30.35,North,0,0.0,0.0,84,0.00,,,0.00,WUHU216HW,2013-07-31 05:35:00,
2013-07-31 01:40:00,67.1,62.0,30.35,North,0,0.0,0.0,84,0.00,,,0.00,WUHU216HW,2013-07-31 05:40:00,
2013-07-31 01:45:00,67.1,62.0,30.35,North,0,0.0,0.0,84,0.00,,,0.00,WUHU216HW,2013-07-31 05:45:00,
2013-07-31 01:50:00,67.1,62.0,30.35,North,0,0.0,0.0,84,0.00,,,0.00,WUHU216HW,2013-07-31 05:50:00,
2013-07-31 01:55:00,67.1,62.0,30.35,North,0,0.0,0.0,84,0.00,,,0.00,WUHU216HW,2013-07-31 05:55:00,
2013-07-31 02:00:00,67.1,62.0,30.34,North,0,0.0,0.0,84,0.00,,,0.00,WUHU216HW,2013-07-31 06:00:00,
2013-07-31 02:05:00,67.1,62.0,30.34,North,0,0.0,0.0,84,0.00,,,0.00,WUHU216HW,2013-07-31 06:05:00,
2013-07-31 02:10:00,67.1,62.0,30.34,North,0,0.0,0.0,84,0.00,,,0.00,WUHU216HW,2013-07-31 06:10:00,
2013-07-31 02:15:00,67.1,62.0,30.34,North,0,0.0,0.0,84,0.00,,,0.00,WUHU216HW,2013-07-31 06:15:00,
2013-07-31 02:20:00,66.9,61.9,30.34,North,0,0.0,0.0,84,0.00,,,0.00,WUHU216HW,2013-07-31 06:20:00,
2013-07-31 02:25:00,66.9,61.9,30.34,North,0,0.0,0.0,84,0.00,,,0.00,WUHU216HW,2013-07-31 06:25:00,
2013-07-31 02:30:00,66.9,61.9,30.35,North,0,0.0,0.0,84,0.00,,,0.00,WUHU216HW,2013-07-31 06:30:00,
2013-07-31 02:35:00,66.7,61.7,30.34,North,0,0.0,0.0,84,0.00,,,0.00,WUHU216HW,2013-07-31 06:35:00,
2013-07-31 02:40:00,66.7,61.7,30.34,North,0,0.0,0.0,84,0.00,,,0.00,WUHU216HW,2013-07-31 06:40:00,
2013-07-31 02:45:00,66.5,61.8,30.34,North,0,0.0,0.0,85,0.00,,,0.00,WUHU216HW,2013-07-31 06:45:00,
2013-07-31 02:50:00,66.5,61.8,30.34,North,0,0.0,0.0,85,0.00,,,0.00,WUHU216HW,2013-07-31 06:50:00,
2013-07-31 02:55:00,66.5,61.8,30.33,North,0,0.0,0.0,85,0.00,,,0.00,WUHU216HW,2013-07-31 06:55:00,
2013-07-31 03:00:00,66.7,62.0,30.33,North,0,0.0,0.0,85,0.00,,,0.00,WUHU216HW,2013-07-31 07:00:00,
2013-07-31 03:05:00,66.5,61.8,30.33,North,0,0.0,0.0,85,0.00,,,0.00,WUHU216HW,2013-07-31 07:05:00,
2013-07-31 03:10:00,66.5,61.8,30.34,North,0,0.0,0.0,85,0.00,,,0.00,WUHU216HW,2013-07-31 07:10:00,
2013-07-31 03:15:00,66.3,62.0,30.33,North,0,0.0,0.0,86,0.00,,,0.00,WUHU216HW,2013-07-31 07:15:00,
2013-07-31 03:20:00,66.2,61.8,30.33,North,0,0.0,0.0,86,0.00,,,0.00,WUHU216HW,2013-07-31 07:20:00,
2013-07-31 03:26:00,66.2,61.8,30.33,North,0,0.0,0.0,86,0.00,,,0.00,WUHU216HW,2013-07-31 07:26:00,
2013-07-31 03:31:00,66.2,61.8,30.33,North,0,0.0,0.0,86,0.00,,,0.00,WUHU216HW,2013-07-31 07:31:00,
2013-07-31 03:36:00,66.0,61.6,30.33,North,0,0.0,0.0,86,0.00,,,0.00,WUHU216HW,2013-07-31 07:36:00,
2013-07-31 03:41:00,66.0,61.6,30.33,North,0,0.0,0.0,86,0.00,,,0.00,WUHU216HW,2013-07-31 07:41:00,
2013-07-31 03:46:00,66.0,61.6,30.33,North,0,0.0,0.0,86,0.02,,,0.02,WUHU216HW,2013-07-31 07:46:00,
2013-07-31 03:51:00,66.0,61.9,30.33,North,0,0.0,0.0,87,0.02,,,0.02,WUHU216HW,2013-07-31 07:51:00,
2013-07-31 03:56:00,66.0,61.9,30.33,North,0,0.0,0.0,87,0.02,,,0.02,WUHU216HW,2013-07-31 07:56:00,
2013-07-31 04:01:00,66.0,61.9,30.33,North,0,0.0,0.0,87,0.02,,,0.02,WUHU216HW,2013-07-31 08:01:00,
2013-07-31 04:06:00,66.0,61.9,30.33,North,0,0.0,0.0,87,0.02,,,0.02,WUHU216HW,2013-07-31 08:06:00,
2013-07-31 04:11:00,66.0,61.9,30.33,North,0,0.0,0.0,87,0.04,,,0.04,WUHU216HW,2013-07-31 08:11:00,
2013-07-31 04:16:00,66.0,61.9,30.33,North,0,0.0,0.0,87,0.04,,,0.04,WUHU216HW,2013-07-31 08:16:00,
2013-07-31 04:21:00,66.0,61.9,30.33,North,0,0.0,0.0,87,0.04,,,0.04,WUHU216HW,2013-07-31 08:21:00,
2013-07-31 04:26:00,66.0,61.9,30.33,North,0,0.0,0.0,87,0.04,,,0.04,WUHU216HW,2013-07-31 08:26:00,
2013-07-31 04:31:00,66.0,61.9,30.33,North,0,0.0,0.0,87,0.04,,,0.04,WUHU216HW,2013-07-31 08:31:00,
2013-07-31 04:36:00,66.0,61.9,30.33,North,0,0.0,0.0,87,0.04,,,0.04,WUHU216HW,2013-07-31 08:36:00,
2013-07-31 04:41:00,66.0,61.9,30.33,North,0,0.0,0.0,87,0.04,,,0.04,WUHU216HW,2013-07-31 08:41:00,
2013-07-31 04:46:00,66.0,61.9,30.33,North,0,0.0,0.0,87,0.02,,,0.04,WUHU216HW,2013-07-31 08:46:00,
2013-07-31 04:51:00,66.0,61.9,30.33,North,0,0.0,0.0,87,0.04,,,0.06,WUHU216HW,2013-07-31 08:51:00,
2013-07-31 04:56:00,66.0,61.9,30.32,North,0,0.0,0.0,87,0.06,,,0.08,WUHU216HW,2013-07-31 08:56:00,
2013-07-31 05:01:00,66.0,61.9,30.32,North,0,0.0,0.0,87,0.06,,,0.08,WUHU216HW,2013-07-31 09:01:00,
2013-07-31 05:06:00,66.0,61.9,30.33,North,0,0.0,0.0,87,0.04,,,0.08,WUHU216HW,2013-07-31 09:06:00,
2013-07-31 05:11:00,66.0,61.9,30.33,North,0,0.0,0.0,87,0.06,,,0.10,WUHU216HW,2013-07-31 09:11:00,
2013-07-31 05:16:00,65.8,61.8,30.32,North,0,0.0,0.0,87,0.06,,,0.10,WUHU216HW,2013-07-31 09:16:00,
2013-07-31 05:21:00,65.8,61.8,30.33,North,0,0.0,0.0,87,0.06,,,0.10,WUHU216HW,2013-07-31 09:21:00,
2013-07-31 05:26:00,65.8,61.8,30.32,North,0,0.0,0.0,87,0.08,,,0.10,WUHU216HW,2013-07-31 09:26:00,
2013-07-31 05:31:00,65.8,61.8,30.32,North,0,0.0,0.0,87,0.08,,,0.12,WUHU216HW,2013-07-31 09:31:00,
2013-07-31 05:36:00,65.8,61.8,30.32,North,0,0.0,0.0,87,0.08,,,0.12,WUHU216HW,2013-07-31 09:36:00,
2013-07-31 05:41:00,65.8,61.8,30.32,North,0,0.0,0.0,87,0.08,,,0.12,WUHU216HW,2013-07-31 09:41:00,
2013-07-31 05:46:00,65.8,61.8,30.32,North,0,0.0,0.0,87,0.10,,,0.14,WUHU216HW,2013-07-31 09:46:00,
2013-07-31 05:51:00,65.8,61.8,30.31,North,0,0.0,0.0,87,0.06,,,0.14,WUHU216HW,2013-07-31 09:51:00,
2013-07-31 05:56:00,65.8,61.8,30.32,North,0,0.0,0.0,87,0.06,,,0.14,WUHU216HW,2013-07-31 09:56:00,
2013-07-31 06:01:00,65.8,61.8,30.32,North,0,0.0,0.0,87,0.06,,,0.14,WUHU216HW,2013-07-31 10:01:00,
2013-07-31 06:06:00,65.8,61.8,30.32,North,0,0.0,0.0,87,0.04,,,0.14,WUHU216HW,2013-07-31 10:06:00,
2013-07-31 06:11:00,65.6,61.6,30.32,North,0,0.0,0.0,87,0.04,,,0.14,WUHU216HW,2013-07-31 10:11:00,
2013-07-31 06:16:00,65.6,61.6,30.32,North,0,0.0,0.0,87,0.04,,,0.14,WUHU216HW,2013-07-31 10:16:00,
2013-07-31 06:21:00,65.4,61.4,30.32,North,0,0.0,0.0,87,0.04,,,0.14,WUHU216HW,2013-07-31 10:21:00,
2013-07-31 06:26:00,65.4,61.8,30.32,North,0,0.0,0.0,88,0.02,,,0.14,WUHU216HW,2013-07-31 10:26:00,
2013-07-31 06:31:00,65.3,61.6,30.32,North,0,0.0,0.0,88,0.02,,,0.14,WUHU216HW,2013-07-31 10:31:00,
2013-07-31 06:36:00,65.1,61.4,30.32,North,0,0.0,0.0,88,0.02,,,0.14,WUHU216HW,2013-07-31 10:36:00,
2013-07-31 06:41:00,65.1,61.4,30.32,North,0,0.0,0.0,88,0.02,,,0.14,WUHU216HW,2013-07-31 10:41:00,
2013-07-31 06:46:00,65.1,61.4,30.32,North,0,0.0,0.0,88,0.00,,,0.14,WUHU216HW,2013-07-31 10:46:00,
2013-07-31 06:51:00,64.9,61.3,30.33,North,0,0.0,0.0,88,0.02,,,0.14,WUHU216HW,2013-07-31 10:51:00,
2013-07-31 06:56:00,64.9,61.3,30.32,North,0,0.0,0.0,88,0.02,,,0.16,WUHU216HW,2013-07-31 10:56:00,
2013-07-31 07:01:00,64.7,61.1,30.33,North,0,0.0,0.0,88,0.02,,,0.16,WUHU216HW,2013-07-31 11:01:00,
2013-07-31 07:06:00,64.7,61.1,30.32,North,0,0.0,0.0,88,0.02,,,0.16,WUHU216HW,2013-07-31 11:06:00,
2013-07-31 07:11:00,64.7,61.1,30.32,North,0,0.0,0.0,88,0.02,,,0.16,WUHU216HW,2013-07-31 11:11:00,
2013-07-31 07:16:00,64.7,61.1,30.33,North,0,0.0,0.0,88,0.02,,,0.16,WUHU216HW,2013-07-31 11:16:00,
2013-07-31 07:21:00,64.7,61.1,30.33,North,0,0.0,0.0,88,0.02,,,0.16,WUHU216HW,2013-07-31 11:21:00,
2013-07-31 07:26:00,64.7,61.1,30.33,North,0,0.0,0.0,88,0.02,,,0.16,WUHU216HW,2013-07-31 11:26:00,
2013-07-31 07:31:00,64.7,61.1,30.33,North,0,0.0,0.0,88,0.02,,,0.16,WUHU216HW,2013-07-31 11:31:00,
2013-07-31 07:37:00,64.7,61.1,30.33,North,0,0.0,0.0,88,0.02,,,0.16,WUHU216HW,2013-07-31 11:37:00,
2013-07-31 07:42:00,64.9,61.6,30.32,North,0,0.0,0.0,89,0.02,,,0.16,WUHU216HW,2013-07-31 11:42:00,
2013-07-31 07:47:00,64.9,61.6,30.32,North,0,0.0,0.0,89,0.02,,,0.16,WUHU216HW,2013-07-31 11:47:00,
2013-07-31 07:52:00,64.9,61.6,30.32,North,0,0.0,0.0,89,0.00,,,0.16,WUHU216HW,2013-07-31 11:52:00,
2013-07-31 07:57:00,64.9,61.6,30.32,North,0,0.0,0.0,89,0.00,,,0.16,WUHU216HW,2013-07-31 11:57:00,
2013-07-31 08:02:00,64.9,61.6,30.33,North,0,0.0,0.0,89,0.00,,,0.16,WUHU216HW,2013-07-31 12:02:00,
2013-07-31 08:07:00,64.9,61.6,30.33,North,0,0.0,0.0,89,0.00,,,0.16,WUHU216HW,2013-07-31 12:07:00,
2013-07-31 08:12:00,64.9,61.6,30.33,North,0,0.0,0.0,89,0.00,,,0.16,WUHU216HW,2013-07-31 12:12:00,
2013-07-31 08:17:00,64.9,61.6,30.33,North,0,0.0,0.0,89,0.00,,,0.16,WUHU216HW,2013-07-31 12:17:00,
2013-07-31 08:22:00,64.9,61.6,30.33,North,0,0.0,0.0,89,0.00,,,0.16,WUHU216HW,2013-07-31 12:22:00,
2013-07-31 08:27:00,64.7,61.5,30.33,North,0,0.0,0.0,89,0.00,,,0.16,WUHU216HW,2013-07-31 12:27:00,
2013-07-31 08:32:00,64.9,61.6,30.33,North,0,0.0,0.0,89,0.00,,,0.16,WUHU216HW,2013-07-31 12:32:00,
2013-07-31 08:37:00,64.9,61.6,30.33,North,0,0.0,0.0,89,0.00,,,0.16,WUHU216HW,2013-07-31 12:37:00,
2013-07-31 08:42:00,64.9,61.6,30.32,North,0,0.0,0.0,89,0.00,,,0.16,WUHU216HW,2013-07-31 12:42:00,
2013-07-31 08:47:00,64.9,61.6,30.32,North,0,0.0,0.0,89,0.00,,,0.16,WUHU216HW,2013-07-31 12:47:00,
2013-07-31 08:52:00,65.1,61.8,30.32,North,0,0.0,0.0,89,0.00,,,0.16,WUHU216HW,2013-07-31 12:52:00,
2013-07-31 08:57:00,65.1,61.8,30.32,North,0,0.0,0.0,89,0.00,,,0.16,WUHU216HW,2013-07-31 12:57:00,
2013-07-31 09:02:00,65.1,61.8,30.32,North,0,0.0,0.0,89,0.00,,,0.16,WUHU216HW,2013-07-31 13:02:00,
2013-07-31 09:07:00,65.3,61.9,30.32,North,0,0.0,0.0,89,0.00,,,0.16,WUHU216HW,2013-07-31 13:07:00,
2013-07-31 09:12:00,65.3,61.9,30.32,North,0,0.0,0.0,89,0.00,,,0.16,WUHU216HW,2013-07-31 13:12:00,
2013-07-31 09:17:00,65.4,62.1,30.32,North,0,0.0,0.0,89,0.00,,,0.16,WUHU216HW,2013-07-31 13:17:00,
2013-07-31 09:22:00,65.4,62.1,30.33,North,0,0.0,0.0,89,0.00,,,0.16,WUHU216HW,2013-07-31 13:22:00,
2013-07-31 09:27:00,65.6,62.3,30.33,North,0,0.0,0.0,89,0.00,,,0.16,WUHU216HW,2013-07-31 13:27:00,
2013-07-31 09:32:00,65.8,62.4,30.33,North,0,0.0,0.0,89,0.00,,,0.16,WUHU216HW,2013-07-31 13:32:00,
2013-07-31 09:37:00,65.8,62.4,30.32,North,0,0.0,0.0,89,0.00,,,0.16,WUHU216HW,2013-07-31 13:37:00,
2013-07-31 09:42:00,65.8,62.4,30.32,NNW,338,0.0,0.0,89,0.02,,,0.16,WUHU216HW,2013-07-31 13:42:00,
2013-07-31 09:47:00,66.0,62.6,30.32,NNW,338,0.0,0.0,89,0.02,,,0.18,WUHU216HW,2013-07-31 13:47:00,
2013-07-31 09:52:00,66.0,62.6,30.32,NNW,338,0.0,0.0,89,0.02,,,0.18,WUHU216HW,2013-07-31 13:52:00,
2013-07-31 09:57:00,66.0,62.6,30.32,NNW,338,0.0,0.0,89,0.02,,,0.18,WUHU216HW,2013-07-31 13:57:00,
2013-07-31 10:02:00,66.0,62.6,30.33,NNW,338,0.0,0.0,89,0.02,,,0.18,WUHU216HW,2013-07-31 14:02:00,
2013-07-31 10:07:00,66.0,62.6,30.33,NNW,338,0.0,0.0,89,0.02,,,0.18,WUHU216HW,2013-07-31 14:07:00,
2013-07-31 10:12:00,66.0,62.6,30.33,NNW,338,0.0,0.0,89,0.02,,,0.18,WUHU216HW,2013-07-31 14:12:00,
2013-07-31 10:17:00,66.0,62.6,30.32,NNW,338,0.0,0.0,89,0.02,,,0.18,WUHU216HW,2013-07-31 14:17:00,
2013-07-31 10:23:00,66.0,62.6,30.32,NNW,338,0.0,0.0,89,0.02,,,0.18,WUHU216HW,2013-07-31 14:23:00,
2013-07-31 10:28:00,66.0,62.6,30.32,NNW,338,0.0,0.0,89,0.02,,,0.18,WUHU216HW,2013-07-31 14:28:00,
2013-07-31 10:33:00,66.0,62.9,30.32,NNW,338,0.0,0.0,90,0.02,,,0.18,WUHU216HW,2013-07-31 14:33:00,
2013-07-31 10:38:00,66.0,62.9,30.32,NNW,338,0.0,0.0,90,0.02,,,0.18,WUHU216HW,2013-07-31 14:38:00,
2013-07-31 10:43:00,66.3,63.3,30.32,NNW,338,0.0,0.0,90,0.00,,,0.18,WUHU216HW,2013-07-31 14:43:00,
2013-07-31 10:48:00,66.3,63.3,30.32,NNW,338,0.0,0.0,90,0.00,,,0.18,WUHU216HW,2013-07-31 14:48:00,
2013-07-31 10:53:00,66.3,63.3,30.31,NNW,338,0.0,0.0,90,0.00,,,0.18,WUHU216HW,2013-07-31 14:53:00,
2013-07-31 10:58:00,66.7,63.6,30.32,NNW,338,0.0,0.0,90,0.00,,,0.18,WUHU216HW,2013-07-31 14:58:00,
2013-07-31 11:03:00,66.7,63.6,30.31,NNW,338,0.0,0.0,90,0.00,,,0.18,WUHU216HW,2013-07-31 15:03:00,
2013-07-31 11:08:00,66.7,63.6,30.31,NNW,338,0.0,0.0,90,0.00,,,0.18,WUHU216HW,2013-07-31 15:08:00,
2013-07-31 11:13:00,66.9,63.8,30.31,NNW,338,0.0,0.0,90,0.00,,,0.18,WUHU216HW,2013-07-31 15:13:00,
2013-07-31 11:18:00,67.1,64.0,30.31,NNW,338,0.0,0.0,90,0.00,,,0.18,WUHU216HW,2013-07-31 15:18:00,
2013-07-31 11:23:00,67.2,64.2,30.31,NNW,338,0.0,0.0,90,0.00,,,0.18,WUHU216HW,2013-07-31 15:23:00,
2013-07-31 11:28:00,67.8,64.7,30.31,NNW,338,0.0,0.0,90,0.00,,,0.18,WUHU216HW,2013-07-31 15:28:00,
2013-07-31 11:33:00,67.8,64.7,30.31,NNW,338,0.0,0.0,90,0.00,,,0.18,WUHU216HW,2013-07-31 15:33:00,
2013-07-31 11:38:00,68.3,65.1,30.31,NNW,338,0.0,0.0,90,0.00,,,0.18,WUHU216HW,2013-07-31 15:38:00,
2013-07-31 11:43:00,68.5,65.4,30.30,NNW,338,0.0,0.0,90,0.00,,,0.18,WUHU216HW,2013-07-31 15:43:00,
2013-07-31 11:48:00,68.7,65.6,30.30,NNW,338,0.0,0.0,90,0.00,,,0.18,WUHU216HW,2013-07-31 15:48:00,
2013-07-31 11:53:00,69.0,66.0,30.30,NNW,338,0.0,0.0,90,0.00,,,0.18,WUHU216HW,2013-07-31 15:53:00,
2013-07-31 11:58:00,69.4,66.3,30.30,NNW,338,0.0,0.0,90,0.00,,,0.18,WUHU216HW,2013-07-31 15:58:00,
2013-07-31 12:03:00,69.4,66.0,30.30,NNW,338,0.0,0.0,89,0.00,,,0.18,WUHU216HW,2013-07-31 16:03:00,
2013-07-31 12:08:00,69.6,66.2,30.29,NNW,338,0.0,0.0,89,0.00,,,0.18,WUHU216HW,2013-07-31 16:08:00,
2013-07-31 12:13:00,69.9,66.9,30.29,NNW,338,0.0,0.0,90,0.00,,,0.18,WUHU216HW,2013-07-31 16:13:00,
2013-07-31 12:18:00,70.1,67.1,30.29,NNW,338,0.0,0.0,90,0.00,,,0.18,WUHU216HW,2013-07-31 16:18:00,
2013-07-31 12:23:00,70.3,67.4,30.29,NNW,338,0.0,0.0,90,0.00,,,0.18,WUHU216HW,2013-07-31 16:23:00,
2013-07-31 12:28:00,70.8,67.8,30.29,NNW,338,0.0,0.0,90,0.00,,,0.18,WUHU216HW,2013-07-31 16:28:00,
2013-07-31 12:33:00,71.2,68.1,30.29,NNW,338,0.0,0.0,90,0.00,,,0.18,WUHU216HW,2013-07-31 16:33:00,
2013-07-31 12:43:00,71.7,68.3,30.28,South,180,0.0,0.0,89,0.00,,,0.18,WUHU216HW,2013-07-31 16:43:00,
2013-07-31 12:48:00,72.1,68.7,30.28,South,180,0.0,0.0,89,0.00,,,0.18,WUHU216HW,2013-07-31 16:48:00,
2013-07-31 12:53:00,72.3,68.5,30.28,South,180,0.0,0.0,88,0.00,,,0.18,WUHU216HW,2013-07-31 16:53:00,
2013-07-31 12:58:00,72.6,68.9,30.28,SSE,158,0.0,0.0,88,0.00,,,0.18,WUHU216HW,2013-07-31 16:58:00,
2013-07-31 13:03:00,73.0,68.9,30.28,SSE,158,0.0,0.0,87,0.00,,,0.18,WUHU216HW,2013-07-31 17:03:00,
2013-07-31 13:08:00,73.2,69.1,30.28,SSE,158,0.0,0.0,87,0.00,,,0.18,WUHU216HW,2013-07-31 17:08:00,
2013-07-31 13:13:00,73.4,68.9,30.28,SE,135,0.0,0.0,86,0.00,,,0.18,WUHU216HW,2013-07-31 17:13:00,
2013-07-31 13:18:00,73.7,69.3,30.28,SE,135,0.0,0.0,86,0.00,,,0.18,WUHU216HW,2013-07-31 17:18:00,
2013-07-31 13:23:00,73.9,69.1,30.28,SE,135,0.0,0.0,85,0.00,,,0.18,WUHU216HW,2013-07-31 17:23:00,
2013-07-31 13:28:00,73.9,69.1,30.27,ESE,113,0.0,0.0,85,0.00,,,0.18,WUHU216HW,2013-07-31 17:28:00,
2013-07-31 13:33:00,74.1,68.8,30.27,SSE,158,0.0,0.0,84,0.00,,,0.18,WUHU216HW,2013-07-31 17:33:00,
2013-07-31 13:38:00,74.1,68.6,30.27,SSE,158,0.0,0.0,83,0.00,,,0.18,WUHU216HW,2013-07-31 17:38:00,
2013-07-31 13:43:00,74.1,68.3,30.27,SSE,158,0.0,0.0,82,0.00,,,0.18,WUHU216HW,2013-07-31 17:43:00,
2013-07-31 13:48:00,73.9,68.1,30.26,SW,225,0.0,0.0,81,0.00,,,0.18,WUHU216HW,2013-07-31 17:48:00,
2013-07-31 13:53:00,73.5,67.4,30.26,South,180,2.0,2.0,81,0.00,,,0.18,WUHU216HW,2013-07-31 17:53:00,
2013-07-31 13:58:00,73.2,67.4,30.26,SE,135,0.0,2.0,82,0.00,,,0.18,WUHU216HW,2013-07-31 17:58:00,
2013-07-31 14:03:00,73.0,67.4,30.26,SE,135,0.0,2.0,82,0.00,,,0.18,WUHU216HW,2013-07-31 18:03:00,
2013-07-31 14:08:00,73.0,67.2,30.26,SSE,158,0.0,0.0,82,0.00,,,0.18,WUHU216HW,2013-07-31 18:08:00,
2013-07-31 14:13:00,73.0,67.2,30.26,SSE,158,0.0,0.0,82,0.00,,,0.18,WUHU216HW,2013-07-31 18:13:00,
2013-07-31 14:18:00,73.0,67.2,30.25,SSE,158,0.0,0.0,82,0.00,,,0.18,WUHU216HW,2013-07-31 18:18:00,
2013-07-31 14:23:00,73.0,67.2,30.25,SSE,158,0.0,0.0,82,0.00,,,0.18,WUHU216HW,2013-07-31 18:23:00,
2013-07-31 14:28:00,72.8,67.0,30.25,SE,135,0.0,0.0,82,0.00,,,0.18,WUHU216HW,2013-07-31 18:28:00,
2013-07-31 14:33:00,72.6,66.8,30.25,SSE,158,0.0,0.0,82,0.00,,,0.18,WUHU216HW,2013-07-31 18:33:00,
2013-07-31 14:38:00,72.6,66.8,30.25,SE,135,0.0,0.0,82,0.00,,,0.18,WUHU216HW,2013-07-31 18:38:00,
2013-07-31 14:43:00,72.6,66.8,30.25,SE,135,0.0,0.0,82,0.00,,,0.18,WUHU216HW,2013-07-31 18:43:00,
2013-07-31 14:48:00,72.5,66.7,30.25,SE,135,0.0,0.0,82,0.00,,,0.18,WUHU216HW,2013-07-31 18:48:00,
2013-07-31 14:53:00,72.5,66.7,30.24,SE,135,0.0,0.0,82,0.00,,,0.18,WUHU216HW,2013-07-31 18:53:00,
2013-07-31 14:58:00,72.5,66.7,30.24,SSE,158,0.0,0.0,82,0.00,,,0.18,WUHU216HW,2013-07-31 18:58:00,
2013-07-31 15:03:00,72.5,66.7,30.24,SE,135,0.0,0.0,82,0.00,,,0.18,WUHU216HW,2013-07-31 19:03:00,
2013-07-31 15:08:00,72.5,66.7,30.24,SSE,158,0.0,0.0,82,0.00,,,0.18,WUHU216HW,2013-07-31 19:08:00,
2013-07-31 15:13:00,72.6,66.8,30.23,SSE,158,0.0,0.0,82,0.00,,,0.18,WUHU216HW,2013-07-31 19:13:00,
2013-07-31 15:18:00,73.0,67.2,30.24,SSE,158,0.0,0.0,82,0.00,,,0.18,WUHU216HW,2013-07-31 19:18:00,
2013-07-31 15:23:00,73.0,66.9,30.24,SE,135,0.0,0.0,81,0.00,,,0.18,WUHU216HW,2013-07-31 19:23:00,
2013-07-31 15:28:00,73.2,67.0,30.23,SSE,158,0.0,0.0,81,0.00,,,0.18,WUHU216HW,2013-07-31 19:28:00,
2013-07-31 15:33:00,73.2,67.0,30.23,SE,135,0.0,0.0,81,0.00,,,0.18,WUHU216HW,2013-07-31 19:33:00,
2013-07-31 15:38:00,73.4,67.2,30.23,SSE,158,0.0,0.0,81,0.00,,,0.18,WUHU216HW,2013-07-31 19:38:00,
2013-07-31 15:43:00,73.5,67.1,30.23,South,180,0.0,0.0,80,0.00,,,0.18,WUHU216HW,2013-07-31 19:43:00,
2013-07-31 15:49:00,73.9,67.8,30.23,SSE,158,0.0,0.0,81,0.00,,,0.18,WUHU216HW,2013-07-31 19:49:00,
2013-07-31 15:54:00,74.1,67.9,30.22,SSE,158,0.0,0.0,81,0.00,,,0.18,WUHU216HW,2013-07-31 19:54:00,
2013-07-31 15:59:00,74.4,68.3,30.22,SSE,158,0.0,0.0,81,0.00,,,0.18,WUHU216HW,2013-07-31 19:59:00,
2013-07-31 16:04:00,75.0,68.8,30.21,SSE,158,0.0,0.0,81,0.00,,,0.18,WUHU216HW,2013-07-31 20:04:00,
2013-07-31 16:09:00,75.3,69.2,30.21,SSE,158,0.0,0.0,81,0.00,,,0.18,WUHU216HW,2013-07-31 20:09:00,
2013-07-31 16:14:00,75.5,69.0,30.21,SE,135,0.0,0.0,80,0.00,,,0.18,WUHU216HW,2013-07-31 20:14:00,
2013-07-31 16:19:00,75.9,68.9,30.21,SSE,158,0.0,0.0,79,0.00,,,0.18,WUHU216HW,2013-07-31 20:19:00,
2013-07-31 16:24:00,75.9,68.9,30.20,SE,135,0.0,0.0,79,0.00,,,0.18,WUHU216HW,2013-07-31 20:24:00,
2013-07-31 16:29:00,75.9,68.9,30.20,SE,135,0.0,0.0,79,0.00,,,0.18,WUHU216HW,2013-07-31 20:29:00,
2013-07-31 16:34:00,75.9,68.5,30.20,SE,135,0.0,0.0,78,0.00,,,0.18,WUHU216HW,2013-07-31 20:34:00,
2013-07-31 16:44:00,75.7,68.4,30.20,SE,135,0.0,0.0,78,0.00,,,0.18,WUHU216HW,2013-07-31 20:44:00,
2013-07-31 16:49:00,75.9,68.5,30.19,SE,135,0.0,0.0,78,0.00,,,0.18,WUHU216HW,2013-07-31 20:49:00,
2013-07-31 16:54:00,75.9,68.5,30.19,South,180,0.0,0.0,78,0.00,,,0.18,WUHU216HW,2013-07-31 20:54:00,
2013-07-31 16:59:00,75.9,68.5,30.19,SSE,158,0.0,0.0,78,0.00,,,0.18,WUHU216HW,2013-07-31 20:59:00,
2013-07-31 17:04:00,75.7,68.4,30.19,East,90,0.0,0.0,78,0.00,,,0.18,WUHU216HW,2013-07-31 21:04:00,
2013-07-31 17:09:00,75.5,68.2,30.19,SE,135,0.0,0.0,78,0.00,,,0.18,WUHU216HW,2013-07-31 21:09:00,
2013-07-31 17:14:00,75.3,68.0,30.19,SSE,158,0.0,0.0,78,0.00,,,0.18,WUHU216HW,2013-07-31 21:14:00,
2013-07-31 17:19:00,75.3,68.0,30.19,SE,135,0.0,0.0,78,0.00,,,0.18,WUHU216HW,2013-07-31 21:19:00,
2013-07-31 17:24:00,75.0,67.7,30.19,SE,135,0.0,0.0,78,0.00,,,0.18,WUHU216HW,2013-07-31 21:24:00,
2013-07-31 17:29:00,75.0,67.7,30.18,SE,135,0.0,0.0,78,0.00,,,0.18,WUHU216HW,2013-07-31 21:29:00,
2013-07-31 17:34:00,74.8,67.5,30.18,East,90,0.0,0.0,78,0.00,,,0.18,WUHU216HW,2013-07-31 21:34:00,
2013-07-31 17:39:00,74.8,67.5,30.18,SE,135,0.0,0.0,78,0.00,,,0.18,WUHU216HW,2013-07-31 21:39:00,
2013-07-31 17:44:00,74.4,67.2,30.18,SE,135,0.0,0.0,78,0.00,,,0.18,WUHU216HW,2013-07-31 21:44:00,
2013-07-31 17:49:00,74.4,67.2,30.18,SE,135,0.0,0.0,78,0.00,,,0.18,WUHU216HW,2013-07-31 21:49:00,
2013-07-31 17:54:00,74.4,67.6,30.17,SE,135,0.0,0.0,79,0.00,,,0.18,WUHU216HW,2013-07-31 21:54:00,
2013-07-31 17:59:00,74.4,67.6,30.17,SSE,158,0.0,0.0,79,0.00,,,0.18,WUHU216HW,2013-07-31 21:59:00,
2013-07-31 18:04:00,74.3,67.0,30.17,SSE,158,0.0,0.0,78,0.00,,,0.18,WUHU216HW,2013-07-31 22:04:00,
2013-07-31 18:09:00,74.1,67.2,30.17,SSE,158,0.0,0.0,79,0.00,,,0.18,WUHU216HW,2013-07-31 22:09:00,
2013-07-31 18:14:00,74.1,67.2,30.18,SSE,158,0.0,0.0,79,0.00,,,0.18,WUHU216HW,2013-07-31 22:14:00,
2013-07-31 18:19:00,74.1,67.2,30.17,SSE,158,0.0,0.0,79,0.00,,,0.18,WUHU216HW,2013-07-31 22:19:00,
2013-07-31 18:24:00,74.1,67.2,30.17,SSE,158,0.0,0.0,79,0.00,,,0.18,WUHU216HW,2013-07-31 22:24:00,
2013-07-31 18:29:00,74.1,67.2,30.16,SSE,158,0.0,0.0,79,0.00,,,0.18,WUHU216HW,2013-07-31 22:29:00,
2013-07-31 18:34:00,74.1,67.2,30.16,SSE,158,0.0,0.0,79,0.00,,,0.18,WUHU216HW,2013-07-31 22:34:00,
2013-07-31 18:39:00,73.9,67.0,30.16,SSE,158,0.0,0.0,79,0.00,,,0.18,WUHU216HW,2013-07-31 22:39:00,
2013-07-31 18:44:00,74.1,67.6,30.16,SSE,158,0.0,0.0,80,0.00,,,0.18,WUHU216HW,2013-07-31 22:44:00,
2013-07-31 18:49:00,74.1,67.6,30.16,SSE,158,0.0,0.0,80,0.00,,,0.18,WUHU216HW,2013-07-31 22:49:00,
2013-07-31 18:54:00,74.1,67.6,30.16,SE,135,0.0,0.0,80,0.00,,,0.18,WUHU216HW,2013-07-31 22:54:00,
2013-07-31 18:59:00,74.1,67.6,30.16,SE,135,0.0,0.0,80,0.00,,,0.18,WUHU216HW,2013-07-31 22:59:00,
2013-07-31 19:04:00,74.1,67.6,30.16,SE,135,0.0,0.0,80,0.00,,,0.18,WUHU216HW,2013-07-31 23:04:00,
2013-07-31 19:09:00,74.3,67.8,30.16,SE,135,0.0,0.0,80,0.00,,,0.18,WUHU216HW,2013-07-31 23:09:00,
2013-07-31 19:14:00,74.3,67.8,30.16,ESE,113,0.0,0.0,80,0.00,,,0.18,WUHU216HW,2013-07-31 23:14:00,
2013-07-31 19:19:00,74.3,67.8,30.16,SE,135,0.0,0.0,80,0.00,,,0.18,WUHU216HW,2013-07-31 23:19:00,
2013-07-31 19:24:00,74.4,68.0,30.16,SE,135,0.0,0.0,80,0.00,,,0.18,WUHU216HW,2013-07-31 23:24:00,
2013-07-31 19:29:00,74.4,68.0,30.16,SE,135,0.0,0.0,80,0.00,,,0.18,WUHU216HW,2013-07-31 23:29:00,
2013-07-31 19:34:00,74.4,67.6,30.16,SE,135,0.0,0.0,79,0.00,,,0.18,WUHU216HW,2013-07-31 23:34:00,
2013-07-31 19:39:00,74.4,67.6,30.16,SE,135,0.0,0.0,79,0.00,,,0.18,WUHU216HW,2013-07-31 23:39:00,
2013-07-31 19:44:00,74.4,68.0,30.16,SE,135,0.0,0.0,80,0.00,,,0.18,WUHU216HW,2013-07-31 23:44:00,
2013-07-31 19:49:00,74.4,68.0,30.16,SE,135,0.0,0.0,80,0.00,,,0.18,WUHU216HW,2013-07-31 23:49:00,
2013-07-31 19:54:00,74.3,68.0,30.17,SE,135,0.0,0.0,80,0.00,,,0.18,WUHU216HW,2013-07-31 23:54:00,
2013-07-31 19:59:00,74.3,67.8,30.17,SE,135,0.0,0.0,80,0.00,,,0.18,WUHU216HW,2013-07-31 23:59:00,
2013-07-31 20:04:00,74.1,67.6,30.17,SE,135,0.0,0.0,80,0.00,,,0.18,WUHU216HW,2013-08-01 00:04:00,
2013-07-31 20:09:00,73.9,67.4,30.17,SE,135,0.0,0.0,80,0.00,,,0.18,WUHU216HW,2013-08-01 00:09:00,
2013-07-31 20:14:00,73.9,67.4,30.18,SE,135,0.0,0.0,80,0.00,,,0.18,WUHU216HW,2013-08-01 00:14:00,
2013-07-31 20:19:00,73.7,67.2,30.18,SSE,158,0.0,0.0,80,0.00,,,0.18,WUHU216HW,2013-08-01 00:19:00,
2013-07-31 20:24:00,73.4,66.9,30.18,SSE,158,0.0,0.0,80,0.00,,,0.18,WUHU216HW,2013-08-01 00:24:00,
2013-07-31 20:29:00,73.2,66.7,30.17,SSE,158,0.0,0.0,80,0.00,,,0.18,WUHU216HW,2013-08-01 00:29:00,
2013-07-31 20:34:00,73.2,66.7,30.18,SSE,158,0.0,0.0,80,0.00,,,0.18,WUHU216HW,2013-08-01 00:34:00,
2013-07-31 20:39:00,73.0,66.5,30.18,SSE,158,0.0,0.0,80,0.00,,,0.18,WUHU216HW,2013-08-01 00:39:00,
2013-07-31 20:44:00,72.8,66.3,30.18,SSE,158,0.0,0.0,80,0.00,,,0.18,WUHU216HW,2013-08-01 00:44:00,
2013-07-31 20:49:00,72.6,66.2,30.18,SSE,158,0.0,0.0,80,0.00,,,0.18,WUHU216HW,2013-08-01 00:49:00,
2013-07-31 20:54:00,72.5,66.2,30.19,SSE,158,0.0,0.0,81,0.00,,,0.18,WUHU216HW,2013-08-01 00:54:00,
2013-07-31 20:59:00,72.3,66.1,30.19,SSE,158,0.0,0.0,81,0.00,,,0.18,WUHU216HW,2013-08-01 00:59:00,
2013-07-31 21:04:00,72.3,66.1,30.19,SSE,158,0.0,0.0,81,0.00,,,0.18,WUHU216HW,2013-08-01 01:04:00,
2013-07-31 21:09:00,72.1,66.0,30.18,SSE,158,0.0,0.0,81,0.00,,,0.18,WUHU216HW,2013-08-01 01:09:00,
2013-07-31 21:14:00,72.1,66.0,30.18,SSE,158,0.0,0.0,81,0.00,,,0.18,WUHU216HW,2013-08-01 01:14:00,
2013-07-31 21:19:00,71.9,66.1,30.18,SSE,158,0.0,0.0,82,0.00,,,0.18,WUHU216HW,2013-08-01 01:19:00,
2013-07-31 21:24:00,71.7,65.9,30.18,SSE,158,0.0,0.0,82,0.00,,,0.18,WUHU216HW,2013-08-01 01:24:00,
2013-07-31 21:29:00,71.7,65.9,30.18,SSE,158,0.0,0.0,82,0.00,,,0.18,WUHU216HW,2013-08-01 01:29:00,
2013-07-31 21:34:00,71.4,65.9,30.18,SSE,158,0.0,0.0,83,0.00,,,0.18,WUHU216HW,2013-08-01 01:34:00,
2013-07-31 21:39:00,71.4,65.9,30.18,SSE,158,0.0,0.0,83,0.00,,,0.18,WUHU216HW,2013-08-01 01:39:00,
2013-07-31 21:44:00,71.2,65.7,30.19,SSE,158,0.0,0.0,83,0.00,,,0.18,WUHU216HW,2013-08-01 01:44:00,
2013-07-31 21:49:00,71.2,65.7,30.19,SSE,158,0.0,0.0,83,0.00,,,0.18,WUHU216HW,2013-08-01 01:49:00,
2013-07-31 21:54:00,70.8,65.7,30.19,SSE,158,0.0,0.0,84,0.00,,,0.18,WUHU216HW,2013-08-01 01:54:00,
2013-07-31 21:59:00,70.8,65.7,30.19,SSE,158,0.0,0.0,84,0.02,,,0.18,WUHU216HW,2013-08-01 01:59:00,
2013-07-31 22:04:00,70.7,65.5,30.19,SSE,158,0.0,0.0,84,0.02,,,0.20,WUHU216HW,2013-08-01 02:04:00,
2013-07-31 22:09:00,70.7,65.9,30.19,SSE,158,0.0,0.0,85,0.02,,,0.20,WUHU216HW,2013-08-01 02:09:00,
2013-07-31 22:14:00,70.7,65.9,30.19,SSE,158,0.0,0.0,85,0.02,,,0.20,WUHU216HW,2013-08-01 02:14:00,
2013-07-31 22:19:00,70.7,65.9,30.19,SSE,158,0.0,0.0,85,0.02,,,0.20,WUHU216HW,2013-08-01 02:19:00,
2013-07-31 22:24:00,70.7,65.9,30.19,SSE,158,0.0,0.0,85,0.02,,,0.20,WUHU216HW,2013-08-01 02:24:00,
2013-07-31 22:29:00,70.5,65.7,30.19,SSE,158,0.0,0.0,85,0.02,,,0.20,WUHU216HW,2013-08-01 02:29:00,
2013-07-31 22:34:00,70.5,65.7,30.19,SSE,158,0.0,0.0,85,0.02,,,0.20,WUHU216HW,2013-08-01 02:34:00,
2013-07-31 22:39:00,70.5,65.7,30.19,SSE,158,0.0,0.0,85,0.02,,,0.20,WUHU216HW,2013-08-01 02:39:00,
2013-07-31 22:44:00,70.5,65.7,30.18,SSE,158,0.0,0.0,85,0.02,,,0.20,WUHU216HW,2013-08-01 02:44:00,
2013-07-31 22:49:00,70.5,65.7,30.18,SSE,158,0.0,0.0,85,0.02,,,0.20,WUHU216HW,2013-08-01 02:49:00,
2013-07-31 22:54:00,70.5,65.7,30.19,SSE,158,0.0,0.0,85,0.02,,,0.20,WUHU216HW,2013-08-01 02:54:00,
2013-07-31 22:59:00,70.3,65.9,30.19,SSE,158,0.0,0.0,86,0.00,,,0.20,WUHU216HW,2013-08-01 02:59:00,
2013-07-31 23:04:00,70.3,65.9,30.19,SSE,158,0.0,0.0,86,0.00,,,0.20,WUHU216HW,2013-08-01 03:04:00,
2013-07-31 23:09:00,70.1,65.7,30.19,SSE,158,0.0,0.0,86,0.00,,,0.20,WUHU216HW,2013-08-01 03:09:00,
2013-07-31 23:14:00,70.1,65.7,30.19,SSE,158,0.0,0.0,86,0.00,,,0.20,WUHU216HW,2013-08-01 03:14:00,
2013-07-31 23:19:00,69.9,65.5,30.19,SSE,158,0.0,0.0,86,0.00,,,0.20,WUHU216HW,2013-08-01 03:19:00,
2013-07-31 23:24:00,69.9,65.5,30.19,SSE,158,0.0,0.0,86,0.00,,,0.20,WUHU216HW,2013-08-01 03:24:00,
2013-07-31 23:29:00,69.9,65.5,30.18,SSE,158,0.0,0.0,86,0.00,,,0.20,WUHU216HW,2013-08-01 03:29:00,
2013-07-31 23:34:00,69.9,65.8,30.18,SSE,158,0.0,0.0,87,0.00,,,0.20,WUHU216HW,2013-08-01 03:34:00,
2013-07-31 23:39:00,69.9,65.8,30.18,SSE,158,0.0,0.0,87,0.00,,,0.20,WUHU216HW,2013-08-01 03:39:00,
2013-07-31 23:44:00,69.9,65.8,30.18,SSE,158,0.0,0.0,87,0.00,,,0.20,WUHU216HW,2013-08-01 03:44:00,
2013-07-31 23:49:00,69.9,65.8,30.18,SSE,158,0.0,0.0,87,0.00,,,0.20,WUHU216HW,2013-08-01 03:49:00,
2013-07-31 23:55:00,69.8,65.7,30.19,SSE,158,0.0,0.0,87,0.00,,,0.20,WUHU216HW,2013-08-01 03:55:00,